Notices

What's New in latest Release from April 7th, 2021:

- Updated Glossary, including Speed of Maximum Gust, and Total Hourly Precipitation

- Updated national and regional climate services offices contacts and prices information

- Addition of station inventory lists for 1981-2010, 1971-2000, and 1961-1990 Normals.

If you haven't already, please take our survey and provide feedback about our website: https://eccc.sondage-survey.ca/f/LanguageSelection.aspx?s=442ca660-fcf1-47c0-95a9-59707d6fd709

Hourly Data Report for January 23, 2003

TORONTO CITY
ONTARIO

43°40'00.000" N
79°24'00.000" W
112.50 m
6158355
71508
XTO

Download Data

Hourly Data (January 2003)
Hourly Data Report for January 23, 2003
TIME
LST
Temp Definition
°C
Dew Point Definition
°C
Rel Hum Definition
%
Precip. Amount Definition
mm

Wind Dir Definition
10's deg

Wind Spd Definition
km/h
Visibility Definition
km
Stn Press Definition
kPa
Hmdx Definition


Wind Chill Definition


Weather Definition


00:00 -14.2 -19.6 64     0 LegendMM 100.49     LegendNANA
01:00
02:00 -14.2 -19.3 65     0 LegendMM 100.36     LegendNANA
03:00 -13.6 -19.6 61     0 LegendMM 100.30     LegendNANA
04:00
05:00 -14.0 -19.6 63     0 LegendMM 100.24     LegendNANA
06:00 -15.6 -19.6 71     0 LegendMM 100.24     LegendNANA
07:00 -15.9 -19.2 76     0 LegendMM 100.27     LegendNANA
08:00 -16.0 -19.3 76     0 LegendMM 100.26     LegendNANA
09:00 -16.4 -19.6 76     0 LegendMM 100.27     LegendNANA
10:00 -17.3 -20.6 75     0 LegendMM 100.33     LegendNANA
11:00
12:00 -17.4 -20.7 75     0 LegendMM 100.37     LegendNANA
13:00 -17.0 -20.3 75     0 LegendMM 100.35     LegendNANA
14:00 -16.5 -19.8 76     0 LegendMM 100.34     LegendNANA
15:00 -15.5 -19.5 71     0 LegendMM 100.40     LegendNANA
16:00 -14.7 -18.7 72     0 LegendMM 100.45     LegendNANA
17:00 -14.2 -18.2 72     0 LegendMM 100.49     LegendNANA
18:00 -13.4 -17.3 72     0 LegendMM 100.55     LegendNANA
19:00 -12.9 -17.0 71     0 LegendMM 100.64     LegendNANA
20:00 -12.7 -17.6 67     0 LegendMM 100.70     LegendNANA
21:00 -12.7 -18.0 64     0 LegendMM 100.76     LegendNANA
22:00 -13.2 -18.3 65     0 LegendMM 100.80     LegendNANA
23:00 -13.5 -18.9 64     0 LegendMM 100.85     LegendNANA

Notes on Data Quality.

Legend

  • E = Estimated
  • M = Missing
  • NA = Not Available*
  • [empty] = Indicates an unobserved value
Date modified: